Regional Weather Roundup
Issued by NWS

Home | Current Version | Previous Version | Text Only | Print | Product List | Glossary Off
Versions: 1 2 3 4 5 6 7 8 9 10 11 12 13 14 15 16 17 18 19 20 21 22 23 24 25 26 27 28 29 30 31 32 33 34 35 36 37 38 39 40 41 42 43 44 45 46 47 48 49 50

000
ASUS43 KMKX 292011
RWRWI

WISCONSIN REGIONAL WEATHER ROUNDUP
NATIONAL WEATHER SERVICE MILWAUKEE/SULLIVAN WI
300 PM CDT FRI APR 29 2016

NOTE: "FAIR" INDICATES FEW OR NO CLOUDS BELOW 12,000 FEET WITH NO
SIGNIFICANT WEATHER AND/OR OBSTRUCTIONS TO VISIBILITY.

WIZ001-002-006>008-014>016-023>028-292100-
NORTHWEST WISCONSIN

CITY           SKY/WX    TMP DP  RH WIND       PRES   REMARKS
SUPERIOR ARPT  SUNNY     49  32  53 NE7G17    30.19F
ASHLAND        SUNNY     53  35  50 N16       30.18F
HAYWARD        SUNNY     56  30  37 N17G24    30.12F
SIREN          SUNNY     59  28  31 NE12G18   30.11F
CUMBERLAND     SUNNY     55  32  41 E5        30.11S
RICE LAKE      SUNNY     58  29  32 NE8       30.12F
CHETEK         PTSUNNY   58  33  38 CALM      30.10S
LADYSMITH      SUNNY     59  33  36 NE7       30.12S
EAU CLAIRE     PTSUNNY   55  37  50 E9        30.11F
MENOMONIE      CLOUDY    58  51  77 SE8       30.11F
NEW RICHMOND   SUNNY     57  31  36 E8        30.12F
OSCEOLA        SUNNY     58  30  35 E7        30.15S
$$

WIZ003>005-009-010-017-018-292100-
NORTH CENTRAL WISCONSIN

CITY           SKY/WX    TMP DP  RH WIND       PRES   REMARKS
MANITOWISH WTR PTSUNNY   56  32  40 N5        30.11F
ARBOR VITAE    CLOUDY    57  34  41 NE5       30.11F
WOODRUFF       CLOUDY    57  34  41 NE5       30.11F
RHINELANDER    PTSUNNY   55  32  41 E8        30.12F
EAGLE RIVER    CLOUDY    54  30  40 E5        30.12F
LAND O LAKES   CLOUDY    54  31  42 S3        30.14S
PHILLIPS       SUNNY     56  31  38 N3        30.10F
TOMAHAWK       CLOUDY    55  33  44 E3        30.11F
MEDFORD        CLOUDY    53  36  53 E3        30.11S
MERRILL        CLOUDY    56  35  44 E5        30.10F
$$

WIZ029-030-035-036-043>047-292100-
CENTRAL WISCONSIN

CITY           SKY/WX    TMP DP  RH WIND       PRES   REMARKS
WAUSAU         CLOUDY    56  35  45 SE7       30.09F
MOSINEE        CLOUDY    54  36  50 E8        30.12F
MARSHFIELD     CLOUDY    54  37  52 MISG      30.10F
STEVENS POINT  CLOUDY    52  32  46 SE8       30.12F
WAUPACA        CLOUDY    56  33  41 E7        30.13F
WAUTOMA        MOSUNNY   55  33  43 E12       30.10F
WISC RAPIDS    CLOUDY    55  33  43 E10       30.12F
CAMP DOUGLAS   CLOUDY    52  43  71 NE8       30.11F
$$

WIZ011>013-019>022-031-037>040-048>050-292100-
NORTHEAST WISCONSIN

CITY           SKY/WX    TMP DP  RH WIND       PRES   REMARKS
ANTIGO         CLOUDY    55  33  42 CALM      30.11F
SHAWANO        CLOUDY    56  36  47 E10       30.13F
OCONTO         CLOUDY    52  30  43 E3        30.16R
STURGEON BAY   MOSUNNY   52  28  40 N7        30.17F
GREEN BAY      CLOUDY    55  34  45 NE10      30.14F
MANITOWOC      MOSUNNY   52  29  41 MISG      30.13F
APPLETON       PTSUNNY   52  30  43 NE10      30.11F
CLINTONVILLE   CLOUDY    54  32  43 CALM      30.12F
OSHKOSH        MOSUNNY   54  32  43 NE13      30.11F
$$

WIZ032>034-041-042-053>061-292100-
SOUTHWEST WISCONSIN

CITY           SKY/WX    TMP DP  RH WIND       PRES   REMARKS
LA CROSSE      CLOUDY    55  39  54 N8        30.12S
SPARTA         CLOUDY    51  39  63 N5        30.12S
VIROQUA        CLOUDY    48  38  67 NE7       30.12R
BOSCOBEL       CLOUDY    53  37  54 NE8       30.12S
PRAIRIE DU CHI CLOUDY    52  36  54 E6        30.12R
PLATTEVILLE    CLOUDY    49  40  71 E8        30.12S
$$

WIZ056-057-062-063-064-067-068-292100-
SOUTH CENTRAL WISCONSIN

CITY           SKY/WX    TMP DP  RH WIND       PRES   REMARKS
REEDSBURG      CLOUDY    51  36  57 N3        30.11R
BARABOO/DELLS  CLOUDY    52  36  53 NE8       30.11R
LONE ROCK      CLOUDY    51  38  60 E3        30.12S
MINERAL POINT  CLOUDY    50  39  66 E6        30.11R
MADISON        CLOUDY    51  38  60 NE12      30.10S
MIDDLETON      CLOUDY    52  40  64 NE8       30.11S
WATERTOWN      CLOUDY    51  39  62 NE5       30.09S
MONROE         CLOUDY    45  39  81 NE6       30.11S
JANESVILLE     CLOUDY    48  39  71 E12       30.11R
$$

WIZ051-052-058>065-066-070>072-292100-
SOUTHEAST WISCONSIN

CITY           SKY/WX    TMP DP  RH WIND       PRES   REMARKS
MILWAUKEE      MOSUNNY   46  38  73 NE10      30.13R
WAUKESHA       PTSUNNY   48  36  61 NE12      30.13R
MILWAUKEE/TIMM MOSUNNY   48  34  57 NE12      30.13R
RACINE         CLOUDY    46  37  71 NE9       30.15R
BURLINGTON     CLOUDY    46  37  71 E6        30.11S
KENOSHA        CLOUDY    48  38  68 E7        30.12R
FOND DU LAC    SUNNY     55  34  45 N13       30.10F
SHEBOYGAN      SUNNY     50  31  48 NE15      30.12F
WEST BEND      SUNNY     52  32  46 NE15G22   30.10R
JUNEAU         PTSUNNY   51  37  59 N6        30.11R
$$

LSZ147-162-292100-
LAKE SUPERIOR

STATION/POSITION TIME  TEMP    WIND        PRES    WAVE
                       AIR SEA DIR/SP/G            HT/PER
                 (UTC) (F)     (DEG/KT/KT) (MB)    (FT/S)
W MID LAKE BUOY  1950   38 37  310/  2/  2 1024.0R   1
DEVILS ISLAND    2000   39      60/  7/  7 1023.8F
SAXON HARBOR     1940   40      30/  7/  8 1022.4S
$$

LMZ867-665-643>646-292100-
LAKE MICHIGAN

STATION/POSITION TIME  TEMP    WIND        PRES    WAVE
                       AIR SEA DIR/SP/G            HT/PER
                 (UTC) (F)     (DEG/KT/KT) (MB)    (FT/S)
CHAMBERS ISLAND  1900   48     330/  2/  3 1021.7
N MID LAKE BUOY  1950   41 39  360/  2/  2 1021.6R   1
NORTHPORT PIER   1900   45     360/  2/  3 1021.0R
ALGOMA LAKESHORE 1900           70/ 12/ 13   N/A
KEWAUNEE LAKESHO 1900   45      30/  8/ 10 1020.8R
SHEBOYGAN LAKESH 2000   41      20/ 10/ 11 1020.7F
PORT WASHINGTON  1900   45      50/  9/ 12 1021.0F
S MID LAKE BUOY  1950   40 40  360/  8/ 10 1020.0R   1/ 3
KENOSHA   LAKESH 2000   41      30/ 12/ 14 1020.0S
$$

TC  - TEMPERATURE IN CELSIUS
VSB - VISIBILITY IN STATUTE MILES
WCI - WIND CHILL INDEX
HX  - HEAT INDEX





USA.gov is the U.S. government's official web portal to all federal, state and local government web resources and services.